Wind_Speed
23 23 23 23 24 24 27 26 23 22 23 23 24 25 26 25 23 22 21 18 16 15 16 17 17 17 17 17 16 17 17 17 18 19 19 19 19 19 18 18 18 18 18 18 18 18 18 18 18 18 17 17 16 16 15 14 14 14 15 15 15 15 15 15 15 14 14 14 14 14 14 14 15 15 16 16 17 17 18 18 18 18 19 19 19
21 21 22 22 24 25 26 25 22 22 23 24 25 25 23 22 21 22 22 19 18 18 18 18 19 19 19 19 19 19 19 19 20 20 20 21 20 20 19 18 18 18 18 18 18 18 19 19 20 19 19 18 17 16 15 15 15 15 15 15 16 15 15 15 15 15 15 15 15 15 15 15 15 16 16 17 17 18 19 19 19 19 20 20 21
18 18 19 20 21 22 22 21 21 22 22 23 23 22 20 19 20 21 21 20 20 20 20 20 21 21 21 21 22 22 21 21 20 21 21 21 21 20 19 19 19 18 18 18 19 20 21 21 21 21 20 19 18 17 17 16 16 16 16 17 17 17 17 17 17 17 18 18 18 18 18 17 17 19 19 19 20 20 20 21 21 21 22 22 22
17 17 18 19 19 16 15 17 19 20 21 21 20 20 21 20 20 20 21 22 22 22 22 22 23 23 23 23 22 22 21 21 20 21 21 21 21 20 20 20 20 20 20 20 21 21 22 22 22 22 21 20 19 19 19 19 19 19 19 19 20 20 20 20 21 21 22 21 20 20 20 20 20 21 21 21 21 22 22 23 24 24 25 25 25
17 17 18 19 18 16 15 15 17 18 19 20 20 21 23 22 21 21 23 24 24 24 24 24 24 24 23 22 21 21 21 21 20 20 21 21 21 21 21 21 21 21 21 21 21 21 21 22 22 23 22 21 21 21 22 22 22 23 23 22 23 23 23 23 23 24 24 23 21 22 22 22 23 23 23 23 25 25 25 26 27 28 28 28 29
17 17 18 17 16 16 15 15 15 16 18 21 23 24 25 25 25 25 26 26 26 26 26 25 24 23 22 21 21 21 21 21 20 20 20 21 21 22 22 22 22 22 22 21 20 20 21 22 23 24 24 25 25 25 26 26 27 27 27 25 25 26 26 26 25 25 24 23 23 24 25 26 27 28 27 28 29 30 30 30 31 31 31 31 32
16 15 15 14 13 14 15 16 17 19 22 25 26 28 28 28 27 27 28 28 27 27 26 25 24 22 21 22 22 22 21 21 21 22 22 21 22 22 23 23 24 23 23 23 21 21 22 23 25 26 27 28 29 29 30 29 29 30 29 29 28 28 29 28 28 27 27 28 28 29 29 30 32 33 34 34 34 34 35 35 35 35 35 35 36
14 11 11 11 11 13 15 17 19 20 20 21 23 26 28 28 28 28 28 27 26 26 26 25 23 22 22 23 23 23 23 22 21 21 22 21 21 22 23 23 25 26 26 25 24 23 24 25 26 27 29 30 30 30 30 29 29 29 29 29 29 29 29 29 29 30 30 32 33 34 35 36 37 37 38 38 37 36 36 37 37 37 38 39 40
12 11 11 12 13 14 14 16 19 18 16 16 17 20 21 21 23 25 26 25 24 24 25 25 24 24 25 25 25 26 26 25 23 22 21 21 21 22 22 23 26 28 28 27 27 27 26 25 25 26 29 30 30 30 29 29 28 27 26 27 28 28 29 29 30 32 33 35 37 38 39 40 41 41 40 40 40 39 38 39 40 41 42 43 44
16 15 16 16 16 15 14 16 17 17 18 18 19 22 22 20 21 23 24 25 24 24 25 26 25 26 27 28 29 30 29 27 26 26 25 24 23 25 25 25 27 28 28 28 29 30 30 28 27 27 29 28 28 28 29 30 29 28 28 28 28 29 30 32 33 35 36 37 39 40 42 43 44 45 44 44 43 43 42 43 43 44 45 45 45
19 18 18 18 18 17 17 18 17 16 18 19 20 23 24 23 23 22 22 22 23 23 25 26 27 27 29 29 30 32 29 25 25 27 26 26 27 28 28 28 28 29 30 31 31 32 32 31 31 32 32 31 30 29 30 32 31 31 31 31 31 33 34 36 37 38 38 39 41 42 44 45 46 46 46 46 46 45 45 45 45 46 46 46 45
21 19 19 20 20 19 19 19 19 19 20 21 23 24 25 26 26 25 24 24 23 24 27 29 29 29 30 30 31 33 33 30 30 30 29 30 31 30 29 29 30 31 32 33 34 36 37 37 36 36 36 35 34 33 31 32 32 33 33 33 34 35 37 38 39 39 40 42 43 44 45 45 45 45 45 45 46 46 47 47 47 47 47 47 46
24 23 23 23 23 23 23 22 22 23 24 24 26 28 29 30 30 29 29 28 27 29 30 32 33 33 32 33 35 36 37 37 36 34 32 32 31 31 31 32 34 36 37 38 38 39 41 42 43 42 40 38 38 37 34 31 31 32 33 34 35 37 38 40 41 42 44 44 45 46 46 45 44 44 45 45 46 47 48 48 49 49 49 49 48
29 28 27 26 26 26 27 27 27 28 28 29 30 31 32 33 32 32 32 32 32 33 34 35 36 36 36 38 38 36 37 38 38 37 36 36 36 36 37 37 37 38 39 40 41 41 43 45 46 46 45 42 40 40 38 36 34 35 37 39 41 41 42 43 44 46 46 46 47 47 46 45 45 46 47 48 48 48 49 49 49 50 50 50 49
33 32 30 30 30 30 31 31 31 32 33 33 33 34 35 36 35 35 36 36 36 37 38 38 39 41 41 41 39 39 40 41 42 41 40 39 40 40 40 39 38 39 39 40 41 42 44 46 47 47 47 45 42 40 41 42 43 44 46 47 46 46 46 47 48 48 48 48 49 48 46 46 47 48 48 48 49 49 50 50 51 51 52 52 51
36 35 35 34 34 34 35 35 36 36 37 38 37 38 39 39 39 39 39 40 40 41 42 42 42 43 43 42 42 43 44 44 43 43 43 43 43 41 39 38 38 38 39 40 40 41 43 45 46 47 47 46 46 44 44 45 46 47 47 47 47 48 49 49 49 49 49 48 47 47 47 47 47 47 47 48 48 49 50 51 52 52 53 52 52
39 38 37 37 37 38 38 38 39 39 40 41 41 42 43 43 42 43 43 44 44 43 42 41 40 40 41 41 40 41 43 43 43 43 44 44 44 42 40 39 38 38 40 41 41 42 44 45 45 47 49 50 50 50 48 47 47 47 47 47 47 47 48 48 48 47 46 45 45 45 45 45 46 46 47 48 49 50 50 51 51 51 52 52 52
38 38 39 40 40 41 42 42 42 43 43 43 44 44 44 44 44 44 43 42 42 41 40 40 41 42 43 43 42 42 43 44 46 47 47 45 44 43 43 43 42 43 43 43 43 43 44 45 46 48 51 52 52 52 51 49 49 49 48 47 45 44 44 45 45 44 44 45 44 44 44 44 46 46 47 48 49 50 50 50 50 51 52 53 53
38 38 40 41 41 42 43 44 44 44 43 43 43 42 42 42 43 42 42 41 41 42 44 46 48 49 49 49 49 49 48 47 47 47 48 47 46 48 50 49 48 48 47 45 45 45 45 46 47 48 50 51 51 51 51 50 49 47 46 45 44 43 42 43 44 44 45 45 45 45 46 47 48 49 49 49 50 50 50 51 52 53 54 54 55
40 39 40 42 42 42 43 43 43 43 42 41 41 41 41 42 43 43 44 45 47 50 53 55 57 57 56 56 55 53 51 50 49 49 50 51 53 54 55 53 52 51 49 47 46 45 46 46 48 49 50 50 50 51 50 49 47 45 45 45 46 45 44 44 44 44 44 45 46 48 50 51 52 52 51 52 52 52 53 54 54 55 55 55 54
40 40 41 42 42 41 41 41 42 42 42 42 42 43 44 46 49 51 53 54 56 58 60 61 60 59 59 58 57 55 53 53 54 54 55 56 56 56 55 54 52 50 49 48 47 46 47 49 49 50 50 50 50 50 50 49 47 46 47 47 48 48 47 47 47 47 47 49 51 53 54 54 54 54 53 53 53 53 54 55 55 55 55 54 53
42 42 43 44 44 44 44 45 45 47 48 48 49 51 53 55 57 58 59 60 59 59 60 60 60 60 59 59 58 57 55 54 55 56 56 56 57 56 54 53 52 51 51 51 49 47 48 50 51 50 50 51 51 51 50 50 49 49 49 49 50 50 51 51 52 52 53 55 57 58 58 57 56 55 54 54 54 55 56 56 55 54 53 53 53
50 50 51 52 53 54 55 55 56 57 57 57 57 58 58 59 59 59 59 60 59 59 59 60 60 60 60 60 60 59 57 56 56 56 56 56 56 55 54 54 54 53 53 53 52 50 50 52 52 52 52 52 52 52 52 52 52 52 51 52 53 54 55 56 56 57 58 58 59 59 58 57 56 55 54 54 55 56 57 57 56 55 54 55 55
55 56 57 59 60 61 61 61 61 61 60 59 59 59 60 60 60 60 61 61 61 61 61 62 62 62 61 62 62 62 61 59 56 54 53 51 52 54 54 55 55 54 55 55 53 53 54 56 56 56 56 56 56 57 57 58 58 57 57 56 57 57 58 57 58 58 59 60 60 59 57 56 55 55 55 55 56 56 56 56 56 56 56 57 57
57 58 59 60 61 62 62 62 63 63 62 62 62 62 62 63 63 63 64 64 65 65 64 64 64 64 63 63 62 62 62 61 57 53 51 50 51 51 51 52 53 54 56 56 55 56 58 59 60 60 61 61 62 62 63 63 64 63 62 60 58 58 58 58 59 59 60 60 60 58 56 55 55 56 57 57 57 57 56 56 56 57 58 59 59
58 59 60 61 62 63 64 65 65 66 66 66 65 65 66 66 66 67 67 67 67 66 65 65 64 64 63 62 59 56 57 60 58 54 50 49 47 45 46 49 50 51 52 53 53 55 57 58 59 61 61 62 63 64 64 64 64 64 62 60 59 58 58 58 59 59 60 61 60 58 57 57 57 58 58 58 57 57 57 58 59 59 60 60 59
61 61 62 63 64 65 66 67 67 68 68 68 68 68 68 68 67 67 67 66 66 65 65 65 64 64 63 62 59 56 56 58 57 52 49 47 48 49 51 52 51 50 49 49 49 52 54 56 58 59 59 59 59 59 59 59 59 60 60 59 59 59 58 59 60 60 61 61 60 59 59 59 59 59 58 58 58 59 59 60 61 61 61 60 58
63 64 65 66 66 67 68 68 69 69 69 69 69 69 68 67 66 65 64 64 64 64 65 65 65 64 64 64 63 61 61 61 59 56 52 49 49 50 50 49 49 48 47 47 48 49 50 51 53 54 53 53 52 52 53 55 56 56 57 58 58 57 57 57 57 58 58 58 59 60 61 61 60 59 59 60 61 61 62 62 62 61 59 57 55
65 65 66 66 67 68 68 68 69 69 69 69 69 68 67 66 66 65 65 64 64 64 64 64 64 65 65 65 64 63 63 62 61 59 56 50 47 47 48 48 49 49 49 51 53 52 50 48 47 46 46 46 48 50 51 52 53 54 56 57 58 58 57 56 55 54 55 56 58 60 61 60 60 61 62 63 63 62 62 61 59 56 54 52 49
65 65 66 66 67 67 68 68 68 68 68 68 68 67 67 67 66 66 66 66 66 66 66 66 67 67 68 67 66 66 65 64 62 60 56 50 47 49 53 54 53 50 48 48 49 51 53 53 51 50 49 50 52 52 51 50 50 50 51 53 55 56 57 56 55 54 54 56 59 61 61 62 62 63 62 61 60 59 57 55 52 49 47 45 44
63 63 63 63 64 64 64 63 63 64 64 64 65 65 65 65 65 65 66 66 66 67 67 68 68 68 69 69 68 67 66 64 60 57 53 50 50 53 57 57 53 48 45 42 39 40 44 48 49 50 51 52 52 52 51 50 50 50 50 51 52 53 53 54 55 56 59 61 63 62 61 60 59 58 56 54 52 50 48 45 43 41 40 40 40
58 59 59 59 60 60 60 59 59 60 60 60 61 61 62 62 62 63 64 65 65 65 66 67 67 67 67 67 66 64 63 61 58 54 50 48 52 57 60 59 56 52 50 47 44 42 44 47 49 50 49 49 49 49 50 50 51 52 52 53 53 53 54 56 58 59 60 60 59 56 54 52 49 48 46 44 42 40 39 37 36 36 37 37 38
55 56 56 55 56 56 56 56 56 56 56 57 57 57 58 59 59 60 61 62 63 63 63 63 64 65 65 64 63 62 61 60 59 56 54 53 55 59 60 60 59 58 56 55 54 55 56 57 57 55 52 49 49 49 51 52 53 55 57 58 58 58 59 58 56 52 50 48 47 46 44 43 41 39 37 36 34 33 32 32 32 33 35 36 37
49 49 49 48 48 48 48 48 47 47 47 47 47 48 49 50 51 52 54 56 57 58 58 58 58 59 60 59 58 58 58 59 58 57 57 59 60 61 61 59 56 56 58 60 62 64 64 63 62 59 54 51 51 54 56 58 59 60 61 61 59 57 54 50 45 42 40 40 38 37 36 35 34 33 32 31 29 28 28 28 30 32 34 36 37
41 40 39 39 38 36 35 34 33 33 33 33 35 36 38 40 42 43 44 45 47 48 49 50 51 53 54 54 53 53 53 53 55 56 57 58 59 61 61 59 55 52 54 56 58 59 59 57 56 53 51 50 53 57 59 59 58 58 56 53 50 46 43 40 37 36 35 34 33 32 31 30 30 29 28 26 24 24 25 27 29 32 34 36 36
29 28 27 26 25 23 23 22 22 23 24 26 29 32 34 37 39 40 41 40 40 41 42 43 43 43 44 45 45 46 46 47 49 51 53 55 56 57 57 55 50 48 47 48 49 52 52 50 47 43 43 45 48 50 51 50 49 47 44 40 38 37 36 35 33 32 31 31 30 29 29 27 26 24 22 21 21 22 24 26 29 32 35 35 32
20 19 19 18 18 17 17 17 18 20 22 23 26 29 32 35 38 40 41 41 40 39 39 40 39 39 38 37 36 37 39 41 43 44 47 49 51 52 52 49 46 44 41 41 44 47 46 45 44 41 39 39 39 39 40 39 37 35 33 32 33 33 33 31 29 28 28 28 28 27 26 23 21 19 18 18 19 21 23 26 29 33 34 31 26
17 16 15 14 14 14 14 15 17 19 21 23 26 29 32 34 34 35 37 39 40 40 38 37 36 36 36 34 33 32 32 33 35 38 40 41 43 45 46 48 51 49 41 35 39 43 42 42 45 44 39 36 35 34 35 34 33 32 33 33 34 34 31 28 26 26 26 26 25 23 21 18 16 15 15 17 19 21 23 25 28 31 32 28 22
14 12 11 11 12 14 15 16 17 19 21 24 27 30 33 34 32 31 31 32 34 37 37 35 33 32 33 32 31 29 28 28 29 31 33 35 36 38 38 41 48 54 49 40 36 39 40 41 42 42 40 38 36 35 36 37 36 36 36 35 35 34 30 26 25 24 24 23 21 19 17 15 15 14 14 16 18 21 23 25 27 29 29 25 19
11 11 11 12 14 14 15 16 18 20 23 25 27 29 32 33 30 27 26 26 26 29 31 31 30 28 28 29 28 26 25 25 25 26 28 29 31 33 34 35 40 47 53 52 47 42 40 40 39 37 37 37 37 36 37 38 39 39 37 36 36 34 29 25 24 23 22 20 18 16 15 14 13 13 13 15 18 20 23 24 25 27 26 22 18
11 11 12 13 14 14 15 16 18 20 23 25 26 28 31 33 28 24 22 20 18 20 23 25 23 21 22 23 23 22 23 24 24 24 25 26 27 28 31 34 37 39 44 52 54 50 47 46 45 41 38 38 37 36 37 39 40 39 37 37 38 33 27 24 23 22 19 18 17 16 15 14 12 12 13 15 17 19 22 23 24 26 26 21 17
10 10 11 12 13 14 15 16 18 20 22 24 25 26 28 31 28 23 19 16 13 11 13 13 13 13 15 16 18 19 20 20 20 21 21 22 22 23 24 30 38 41 42 45 49 49 49 51 51 48 44 41 39 37 39 41 41 40 40 40 38 31 25 23 22 20 18 17 17 16 15 13 12 12 13 14 16 18 21 22 23 24 24 21 16
8 9 10 11 11 13 14 16 17 19 20 21 23 24 25 28 28 24 18 14 9 5 4 5 7 9 10 12 14 16 16 15 16 17 17 17 18 19 20 24 33 41 44 45 47 48 50 52 52 50 47 45 43 42 43 44 44 43 43 40 34 27 23 22 21 19 18 18 17 17 15 14 13 13 14 14 15 17 19 21 22 23 23 22 18
6 7 8 8 9 11 12 14 15 16 17 18 19 21 22 24 26 25 20 14 9 5 2 2 4 6 7 8 10 12 13 13 13 14 14 14 16 18 20 23 28 35 42 46 46 47 48 50 50 49 50 49 48 47 48 48 46 43 39 33 27 23 22 21 20 19 18 18 18 17 16 14 13 13 14 13 13 15 17 19 21 21 22 23 21
5 6 6 7 8 9 11 12 13 14 15 15 16 17 19 21 23 24 23 18 11 6 3 1 1 2 3 4 6 8 9 11 12 11 11 12 13 15 18 21 23 28 35 42 46 46 45 43 43 46 49 50 49 47 46 43 39 34 29 25 22 22 21 21 20 19 19 19 19 18 17 15 14 14 14 13 12 13 15 17 19 20 21 23 23
7 8 9 10 11 12 14 15 16 16 16 15 14 15 17 19 20 21 23 22 17 9 4 3 2 3 3 3 5 6 7 8 9 9 9 9 9 10 12 14 17 19 23 29 35 39 40 39 39 40 42 41 39 36 32 29 26 24 23 22 21 21 20 20 19 19 19 19 19 18 17 16 14 14 14 12 11 12 13 15 17 18 20 21 22
8 9 10 11 13 14 15 17 18 20 20 19 17 15 16 18 19 19 20 21 20 14 7 3 2 2 2 2 2 3 2 2 3 3 4 5 6 8 10 11 12 12 13 15 20 24 27 29 28 27 26 25 23 22 21 20 21 21 21 21 21 20 19 19 19 19 20 20 19 19 18 16 15 14 13 12 11 11 12 13 14 16 18 20 20
7 8 10 10 11 13 14 15 17 19 21 22 22 20 17 17 18 18 18 19 20 17 11 6 4 3 3 2 3 3 1 1 1 0 3 5 7 9 12 14 13 12 12 13 15 16 17 17 17 17 17 17 17 17 18 18 19 20 20 20 20 20 19 19 19 19 19 20 19 19 18 17 16 15 13 11 11 11 11 11 13 15 16 18 19
6 7 8 9 10 11 12 14 15 17 19 21 22 23 21 19 18 17 17 16 16 17 16 11 7 5 4 3 2 2 1 1 1 1 1 3 4 6 8 12 13 14 14 14 14 14 15 16 15 15 15 16 17 18 18 18 19 19 20 20 20 20 19 19 19 19 19 20 20 19 18 17 16 15 14 12 11 10 10 11 11 13 15 16 17
6 7 8 9 10 11 12 13 14 15 16 18 20 21 22 22 20 19 17 15 12 12 14 13 11 9 7 6 4 3 3 2 2 1 1 1 3 4 5 8 11 13 13 13 13 14 15 15 14 14 14 16 17 18 18 18 18 18 19 19 20 20 20 19 19 19 19 20 20 19 19 18 17 16 14 12 11 11 10 10 10 12 13 14 15
7 8 9 10 11 12 12 13 13 14 15 16 17 18 19 20 21 20 19 16 13 9 7 7 7 7 6 5 4 2 1 1 1 0 1 2 3 5 6 7 9 10 11 11 12 13 14 14 14 15 16 17 17 17 17 17 18 18 19 19 20 20 19 19 18 19 19 20 20 20 19 18 18 16 15 13 12 12 11 9 10 11 12 13 13
Wind_Direction
277 279 283 288 288 287 286 282 269 255 249 247 244 243 247 250 244 235 233 236 241 247 251 254 257 260 264 268 271 274 273 272 271 273 274 275 276 278 280 282 282 283 283 284 285 287 288 289 289 288 286 284 282 280 280 281 282 283 284 286 287 287 285 286 285 285 286 285 286 288 291 294 297 299 301 301 302 303 303 303 303 303 303 303 303
279 278 282 285 286 287 286 277 261 250 246 244 242 243 244 244 236 230 233 239 243 246 249 253 257 261 264 266 268 270 270 270 270 271 273 274 276 279 282 283 282 282 282 283 286 288 289 289 288 286 284 282 280 279 278 279 280 282 284 284 285 284 284 285 286 286 287 287 290 291 292 294 296 297 298 299 300 301 301 302 302 301 301 302 303
278 278 282 286 287 288 285 274 258 250 248 245 241 237 234 234 232 231 237 242 245 247 249 253 258 262 265 266 267 267 267 267 267 267 269 272 275 277 278 279 278 278 280 282 285 287 287 286 284 281 278 276 276 277 277 277 278 280 281 282 283 285 285 286 287 288 288 289 290 290 290 292 294 293 294 296 298 299 298 298 297 297 296 296 297
278 278 279 281 288 295 294 281 267 259 254 247 240 231 230 236 238 239 243 245 245 247 249 254 259 263 266 268 268 267 266 264 262 262 265 268 271 273 274 275 275 276 278 280 281 282 282 281 279 276 273 270 270 272 273 274 276 277 277 278 280 281 283 284 285 286 286 286 286 286 289 295 297 296 296 296 297 298 299 297 295 294 293 292 292
274 275 276 277 283 291 293 284 276 271 261 251 242 234 234 240 245 245 245 246 248 250 253 256 259 262 264 265 267 267 267 265 262 261 262 265 267 270 272 272 273 274 275 274 274 275 275 275 276 274 272 270 270 272 273 275 275 276 275 276 277 279 281 284 285 285 285 285 285 286 291 295 296 296 295 294 293 294 295 293 292 291 290 290 291
271 274 278 278 278 280 276 272 273 270 259 249 244 239 239 243 247 247 246 247 250 253 255 258 260 261 262 262 263 264 265 266 267 265 264 265 267 270 272 272 272 272 270 268 266 267 268 269 270 270 270 270 271 272 274 276 275 275 274 274 275 278 281 283 284 283 283 283 284 287 290 292 292 292 291 290 290 291 290 288 286 286 287 287 288
271 278 281 274 270 267 260 258 260 255 246 242 242 242 242 243 243 244 245 247 250 253 255 258 260 261 262 261 260 260 263 266 268 270 271 269 266 266 268 270 271 270 266 263 262 264 266 267 268 268 268 268 269 270 272 273 273 273 272 272 273 276 279 281 282 281 282 282 283 285 287 288 290 290 289 288 287 287 287 286 284 283 284 286 287
264 275 277 265 265 267 258 253 251 246 243 246 248 247 245 243 242 243 245 248 251 255 257 260 262 263 262 261 262 263 264 266 269 272 275 274 269 267 267 268 269 269 265 263 264 267 268 270 271 272 271 269 269 269 269 269 269 270 270 270 271 273 275 278 279 280 280 282 283 284 285 286 287 288 289 288 287 287 286 286 285 284 284 286 288
267 274 269 262 267 268 258 250 247 245 248 257 262 257 251 249 250 251 252 252 255 260 262 262 264 265 264 264 264 264 265 268 270 271 277 281 275 270 271 269 268 266 263 262 264 266 268 271 274 275 273 269 267 266 268 267 267 267 268 268 269 269 271 272 274 276 278 280 282 284 286 287 287 287 287 287 286 286 286 285 285 286 286 287 288
279 280 272 270 269 263 255 251 250 252 255 259 266 265 261 261 264 264 262 257 257 262 264 264 266 267 268 268 266 266 267 269 269 268 273 280 277 271 268 265 264 265 264 264 264 266 268 270 273 275 276 274 270 268 267 267 267 268 268 268 268 269 270 271 274 277 279 281 283 285 287 287 287 287 287 287 286 286 287 287 286 286 286 287 287
280 278 273 273 272 265 259 255 256 261 262 261 267 268 265 265 267 268 264 258 258 262 264 265 265 266 268 269 270 270 270 271 271 270 272 277 277 273 268 264 265 269 269 268 268 270 272 273 274 277 278 279 279 277 273 268 266 266 267 268 269 270 271 274 276 277 279 281 284 285 286 286 286 286 287 287 287 288 289 289 289 289 289 288 288
271 269 265 266 271 268 262 261 262 263 262 261 263 264 263 264 265 264 262 260 261 263 264 264 264 267 269 270 274 274 270 272 276 276 277 277 274 271 267 264 268 272 272 271 270 272 275 276 278 279 279 281 282 282 277 270 265 265 266 268 269 271 274 276 277 279 280 283 284 285 285 285 285 286 286 287 288 289 290 291 290 290 290 289 288
263 265 263 264 268 266 264 266 266 262 260 261 261 262 263 263 262 262 262 263 265 266 267 267 269 271 271 272 275 274 270 273 277 278 279 276 270 269 268 268 271 273 272 272 271 272 273 276 278 279 280 281 281 280 277 270 264 263 266 269 273 276 277 278 279 281 283 284 285 286 287 286 286 287 288 288 290 290 290 291 290 290 289 289 288
261 264 265 265 264 263 264 266 265 262 261 261 260 262 263 264 263 264 265 267 270 270 270 271 272 274 274 275 276 271 268 273 276 276 276 271 268 270 271 270 271 272 271 271 272 273 274 275 277 280 281 280 278 276 273 268 265 267 271 276 279 280 279 280 282 284 286 287 287 287 287 287 287 289 290 290 291 291 290 290 290 290 289 289 289
264 265 265 266 265 264 263 264 264 263 263 263 263 263 264 267 268 270 271 272 273 272 272 273 274 275 275 275 272 267 270 274 274 273 273 270 268 271 272 271 271 271 271 273 274 275 276 276 276 278 280 281 279 276 272 269 270 273 277 280 281 281 281 282 284 285 286 287 287 287 287 288 289 290 290 290 290 290 290 290 290 291 291 291 291
266 266 266 266 265 263 262 261 262 263 264 265 266 265 267 269 270 270 271 272 271 271 271 273 274 274 274 273 271 271 274 273 270 270 270 268 269 271 272 273 272 270 271 274 276 277 277 276 276 276 277 279 279 278 276 274 274 275 277 278 280 280 281 282 283 284 285 285 285 286 287 288 289 290 289 289 289 289 289 290 290 291 291 291 291
267 266 266 265 264 263 262 262 261 261 262 263 263 264 266 267 267 267 267 267 268 267 269 271 272 275 277 277 276 276 275 271 268 268 267 267 267 268 272 275 274 272 274 277 278 278 276 275 275 275 275 277 279 279 279 278 277 277 277 278 279 280 281 282 283 283 283 283 285 286 288 289 289 290 289 288 288 289 289 290 290 291 291 291 291
261 261 261 263 264 264 264 264 264 264 264 264 263 264 265 264 264 263 262 262 262 263 266 270 272 275 277 277 276 277 275 273 272 271 269 268 268 270 276 278 276 276 279 280 279 278 277 276 275 274 276 277 279 280 280 280 281 281 281 281 280 280 281 283 283 283 283 285 286 287 288 290 291 291 290 289 289 289 290 290 290 291 291 291 291
253 256 261 263 264 265 265 266 266 266 265 264 263 262 262 261 262 262 261 260 260 262 266 271 274 276 276 275 275 277 277 276 274 271 269 269 271 276 281 281 279 280 280 279 278 276 276 276 275 274 276 277 278 279 280 281 281 281 282 282 282 282 282 283 284 285 286 287 286 287 290 292 292 292 290 289 289 289 289 289 290 291 291 291 291
251 255 259 260 261 263 263 263 262 261 260 259 259 259 260 261 262 263 263 264 266 268 271 273 275 277 277 277 277 278 278 277 275 273 272 272 275 279 281 281 280 280 279 277 276 274 273 274 274 273 274 275 276 277 279 279 279 279 280 282 283 283 283 284 285 286 287 286 286 288 291 292 292 291 290 288 288 288 289 290 291 292 292 292 292
244 245 247 248 249 251 251 251 251 252 252 253 256 259 262 265 267 268 270 271 273 275 276 277 277 277 277 277 277 277 277 277 276 275 275 275 276 279 280 280 279 278 277 276 274 272 272 272 272 272 272 273 274 275 276 277 277 279 281 283 283 283 284 285 286 285 286 287 288 289 290 290 290 290 288 286 286 286 287 288 289 290 291 291 291
243 243 243 244 246 249 252 253 255 259 262 264 266 268 270 271 272 273 274 274 275 276 276 277 278 278 277 276 276 276 276 276 275 275 275 276 276 277 278 278 277 276 275 274 273 272 272 271 270 270 270 271 272 272 273 274 275 278 280 281 281 282 282 283 284 285 285 287 288 289 289 289 289 288 287 286 285 285 285 286 288 288 289 290 290
259 258 257 258 260 264 266 266 267 269 272 272 272 272 273 273 273 274 274 274 274 275 275 276 277 277 277 277 277 276 275 275 275 275 275 275 275 275 275 274 274 273 272 271 271 271 269 268 268 269 269 269 269 270 271 272 274 276 277 278 279 280 280 281 282 282 283 285 287 288 288 287 288 287 287 286 286 287 288 289 290 290 291 292 293
266 267 267 267 269 270 271 271 271 272 273 273 273 273 273 272 273 273 274 274 274 274 275 275 276 276 277 277 277 276 275 274 274 274 274 274 275 274 273 271 270 269 268 267 268 268 266 265 266 266 267 267 268 269 270 272 273 274 275 276 277 277 277 278 279 280 281 284 286 287 286 286 286 286 286 287 287 288 289 290 292 293 294 295 295
267 267 267 268 269 270 271 272 272 272 272 273 273 272 272 273 273 273 273 273 274 274 274 274 275 275 274 275 275 275 274 273 273 272 273 275 275 273 272 271 269 267 266 266 266 264 263 264 264 265 266 267 267 268 269 270 271 272 273 273 273 274 275 277 278 278 279 282 285 285 284 285 285 286 286 287 288 288 290 291 292 294 295 295 295
268 268 268 269 269 270 271 272 272 273 273 273 273 273 273 273 273 273 273 273 273 273 273 273 272 272 272 272 271 271 272 273 273 271 273 274 273 270 271 272 270 268 267 266 266 264 264 264 265 265 265 266 266 267 268 269 270 271 271 270 270 272 275 276 277 278 279 281 283 283 283 284 286 287 288 288 288 290 291 292 293 294 294 294 294
269 269 270 270 270 270 270 271 271 272 272 273 273 273 273 273 273 273 273 273 272 272 272 271 270 270 270 270 269 268 269 271 272 271 271 269 267 269 273 272 269 269 270 269 268 267 266 264 264 265 265 265 267 268 269 270 271 271 270 270 270 272 274 275 276 277 277 278 280 281 283 285 287 288 288 288 289 290 291 292 292 292 292 292 292
271 271 271 271 271 272 272 272 272 273 273 273 273 273 273 273 273 273 272 271 271 271 270 270 269 269 269 269 269 269 269 269 269 269 269 267 265 267 271 270 268 269 270 269 268 268 267 265 265 264 264 266 268 270 271 270 271 271 271 271 271 272 274 275 275 276 277 278 280 282 285 287 287 287 288 289 290 290 290 291 291 291 291 291 290
271 270 270 271 271 271 271 272 272 272 272 273 273 273 272 272 271 271 270 269 269 268 267 267 267 267 267 267 267 268 268 268 269 269 270 269 263 257 258 263 267 269 269 268 267 264 263 265 264 261 263 268 271 272 272 272 272 273 272 272 272 272 272 274 275 277 280 282 283 285 286 287 287 288 289 289 290 289 289 289 289 289 289 289 289
271 271 271 270 270 270 271 271 271 271 271 271 271 270 269 269 268 268 267 267 267 266 265 265 265 265 265 265 265 265 265 266 268 268 267 265 258 252 253 258 263 267 267 266 264 262 260 261 262 262 266 272 273 272 271 271 272 273 273 273 274 274 274 275 276 279 281 283 284 285 285 286 287 287 288 288 288 288 288 288 289 289 289 289 289
271 271 272 272 272 272 272 272 272 272 272 272 271 270 269 268 268 268 267 267 266 266 266 266 265 265 265 264 264 264 264 264 264 263 262 258 253 251 252 254 255 258 259 256 256 259 260 260 263 266 270 273 273 272 271 270 271 271 272 273 275 277 278 279 280 283 285 286 286 286 285 285 285 285 286 287 287 287 288 288 288 288 288 288 289
273 273 273 274 274 274 274 274 274 274 274 273 273 273 272 271 270 270 269 268 268 268 268 268 267 266 266 265 264 264 264 262 260 258 254 250 247 247 249 250 251 252 254 254 255 257 260 263 267 270 273 273 271 270 270 270 270 272 272 273 275 277 280 284 286 287 287 287 286 285 285 285 286 286 286 286 286 286 287 287 287 288 288 288 289
275 275 276 276 276 276 277 276 276 276 276 276 276 275 274 273 272 271 270 270 269 268 268 269 268 267 266 266 265 264 262 261 258 254 249 245 244 245 248 250 251 250 251 255 258 260 263 268 270 272 273 271 268 268 269 270 272 274 276 278 280 282 285 287 288 287 286 285 285 286 286 286 287 286 286 286 286 286 286 286 286 287 288 289 291
277 277 277 277 278 278 279 279 279 279 279 279 278 278 277 276 274 272 270 269 269 267 266 265 265 265 264 264 263 261 259 257 255 253 249 245 244 245 247 249 250 250 251 255 259 263 267 270 270 269 269 267 267 269 270 271 273 276 279 283 285 286 287 288 287 286 285 285 286 286 285 285 285 285 285 285 285 284 284 285 286 288 291 292 294
279 280 280 280 281 281 282 282 283 284 284 285 285 284 282 281 278 275 272 270 268 267 265 263 262 262 262 261 260 258 257 255 253 251 248 245 243 243 244 245 247 251 255 258 262 265 267 268 268 269 268 266 267 268 269 271 273 277 280 284 285 286 287 287 287 286 286 286 286 285 284 284 284 284 283 282 281 281 284 288 292 295 297 298 298
283 284 285 286 287 288 289 289 289 290 291 292 292 290 288 284 280 277 274 272 269 266 265 263 262 262 261 261 260 258 256 255 253 251 248 246 243 241 240 241 245 250 255 260 265 267 267 267 268 268 266 265 266 267 268 271 274 277 280 282 283 285 287 287 288 287 285 285 286 285 284 283 282 279 277 277 279 284 290 296 300 303 303 303 300
288 290 292 293 294 293 291 291 293 296 299 302 303 302 299 293 286 279 274 270 267 265 264 263 261 260 259 260 260 258 255 253 252 252 251 249 246 242 237 233 232 236 243 253 260 264 266 267 266 263 261 262 265 267 269 271 274 275 276 280 285 287 288 289 289 287 285 285 285 284 282 279 275 271 271 278 286 293 298 303 308 310 309 306 299
291 292 293 293 292 288 287 292 301 307 311 315 317 317 314 308 299 288 278 270 264 261 261 261 260 259 257 257 257 257 256 255 253 252 252 251 248 244 239 230 225 225 230 241 252 255 256 258 260 260 261 261 261 264 267 269 271 271 274 282 288 290 289 290 290 286 285 285 282 279 275 269 263 264 274 286 294 300 304 308 313 316 314 309 298
288 289 287 285 284 284 289 301 312 316 319 321 322 322 323 319 309 297 288 277 266 259 257 258 259 258 255 253 253 255 257 257 254 251 251 251 248 245 240 232 226 225 225 229 239 247 250 251 254 258 260 259 258 259 262 265 268 271 275 282 288 288 287 289 289 284 283 282 276 269 262 256 257 268 283 293 301 306 308 311 316 320 320 312 297
282 281 280 280 284 288 296 307 314 317 320 323 323 325 330 329 319 306 298 288 271 258 253 254 257 258 254 250 251 252 254 256 254 250 250 250 247 244 238 229 223 223 225 227 231 239 244 245 247 251 254 254 254 256 258 262 267 271 275 281 285 285 284 285 283 279 277 275 267 258 252 252 260 275 288 297 304 309 310 311 318 327 328 318 299
278 280 283 286 291 296 301 307 312 315 319 323 323 326 334 338 332 320 312 303 283 262 253 252 254 254 249 247 249 250 250 251 252 252 253 252 250 248 241 229 220 218 223 226 230 236 241 242 242 243 246 249 252 254 257 261 265 269 274 281 283 282 279 278 276 274 271 266 257 249 247 252 263 278 288 297 306 309 310 312 320 331 335 326 306
284 289 294 297 300 302 304 307 311 314 318 323 325 328 336 344 345 337 329 322 305 274 256 251 249 244 242 245 248 247 246 250 253 255 257 258 256 253 246 233 224 221 222 224 228 235 241 244 243 242 245 249 252 254 256 260 264 269 275 280 280 276 272 271 270 267 263 256 248 245 247 253 263 276 286 296 305 308 310 313 321 332 339 337 321
293 296 299 302 304 307 308 309 313 315 318 322 326 330 337 348 354 353 348 342 337 315 260 232 222 219 223 231 237 239 242 250 256 256 256 256 254 250 244 235 228 225 224 225 228 234 239 242 244 246 248 250 252 254 257 261 265 271 274 275 272 267 265 264 263 260 255 248 244 243 247 252 262 274 284 294 304 308 311 314 320 330 343 349 342
314 315 318 320 321 322 321 319 319 320 321 323 329 335 341 350 358 3 4 2 2 9 25 183 196 202 211 222 231 236 242 249 255 256 253 250 248 245 242 238 233 229 228 228 231 234 238 241 246 250 251 251 252 256 259 263 266 269 269 266 261 259 259 258 256 252 248 244 242 243 246 251 261 273 282 292 303 309 312 315 319 329 344 353 353
27 21 18 15 11 6 1 355 349 342 337 333 335 341 347 352 359 6 11 12 9 3 3 10 224 222 225 224 227 233 241 248 254 257 255 252 248 245 244 244 242 238 235 234 235 237 239 243 247 249 250 251 254 258 260 261 261 259 256 253 252 254 254 252 249 245 244 243 242 242 245 250 260 271 279 289 301 309 313 315 320 329 342 351 354
53 49 48 45 41 37 33 28 22 16 8 360 352 350 354 359 3 8 13 15 14 5 345 331 309 271 245 226 221 225 235 246 252 255 256 254 248 248 253 251 243 237 237 238 237 238 240 244 248 250 251 252 253 253 252 249 247 245 245 246 249 250 249 245 243 242 243 243 242 242 245 250 257 267 275 285 298 308 312 315 321 330 337 344 351
55 51 51 49 45 41 37 33 30 28 25 21 15 7 2 4 9 12 14 16 17 16 12 2 352 325 274 212 180 182 206 244 255 261 270 266 255 254 258 251 235 224 226 230 230 231 234 238 241 242 241 240 238 235 234 234 236 239 241 244 245 245 242 239 240 242 244 243 242 243 246 250 256 264 272 281 293 304 311 317 324 330 333 337 346
46 43 41 40 37 35 31 29 29 29 30 29 28 23 15 10 11 15 17 19 21 24 29 41 61 69 76 104 123 124 111 81 104 237 285 276 261 251 247 240 229 221 220 221 224 227 226 221 218 216 216 218 221 225 229 233 236 239 241 242 241 238 236 236 240 243 244 243 243 244 247 250 256 262 268 276 288 299 309 318 325 329 330 333 340
27 26 25 24 23 22 21 20 21 22 25 28 30 30 28 22 17 15 17 21 27 34 40 49 63 74 76 80 99 127 147 153 134 118 284 276 260 247 240 234 228 226 227 228 230 228 221 214 214 217 220 224 228 231 235 238 241 242 242 240 236 233 233 236 240 243 244 244 245 246 248 252 256 260 264 271 281 291 302 313 323 328 329 330 336
7 8 8 7 7 7 6 7 9 11 14 18 23 27 30 29 27 23 20 18 23 36 49 57 62 66 68 71 79 93 99 83 72 86 114 227 222 214 218 226 228 230 232 234 231 225 221 222 228 231 229 230 234 237 241 243 243 240 237 235 233 232 233 236 240 244 246 246 247 248 250 253 256 259 263 268 275 284 293 305 318 325 327 328 331
357 359 359 358 359 359 358 358 360 1 3 7 12 17 22 26 28 29 26 22 19 20 35 54 62 62 62 62 65 79 85 33 14 129 212 236 223 207 207 217 224 226 227 227 225 223 225 228 231 232 234 237 241 242 242 239 234 231 231 232 231 231 233 237 242 246 248 249 249 250 252 254 256 258 261 265 271 278 286 297 311 320 323 325 327
Height
5743 5744 5745 5745 5746 5746 5747 5747 5747 5748 5749 5750 5751 5752 5753 5754 5755 5757 5758 5758 5759 5759 5760 5760 5761 5761 5761 5761 5762 5762 5763 5763 5763 5764 5764 5764 5764 5764 5763 5763 5763 5764 5764 5764 5764 5764 5764 5764 5764 5764 5763 5763 5763 5763 5763 5763 5763 5762 5762 5762 5762 5763 5763 5763 5763 5763 5763 5763 5764 5764 5764 5764 5764 5764 5763 5763 5763 5763 5763 5763 5763 5762 5762 5762 5762
5740 5741 5742 5743 5743 5742 5742 5742 5743 5744 5745 5746 5748 5749 5750 5751 5753 5754 5755 5756 5756 5757 5757 5758 5758 5759 5759 5759 5760 5760 5761 5761 5762 5762 5762 5762 5762 5762 5762 5761 5761 5762 5762 5762 5762 5762 5762 5762 5762 5762 5762 5762 5761 5761 5761 5761 5761 5761 5761 5761 5761 5761 5762 5762 5762 5762 5762 5762 5762 5762 5762 5762 5762 5762 5762 5762 5762 5762 5761 5761 5761 5761 5760 5760 5759
5738 5739 5740 5740 5739 5739 5738 5739 5740 5741 5742 5743 5745 5747 5748 5749 5750 5752 5752 5753 5754 5754 5755 5756 5756 5757 5757 5757 5758 5758 5759 5759 5760 5760 5760 5760 5760 5760 5760 5760 5760 5760 5760 5760 5760 5761 5761 5760 5760 5760 5760 5760 5760 5760 5760 5760 5760 5760 5760 5760 5760 5760 5760 5760 5760 5760 5760 5760 5760 5760 5760 5760 5760 5760 5759 5759 5759 5759 5759 5759 5759 5759 5759 5758 5758
5735 5736 5737 5737 5737 5737 5737 5737 5738 5739 5741 5742 5744 5745 5747 5748 5749 5750 5750 5751 5751 5752 5753 5754 5754 5755 5755 5755 5756 5756 5757 5757 5758 5758 5757 5757 5757 5757 5758 5758 5759 5759 5759 5759 5758 5758 5758 5758 5758 5758 5758 5758 5758 5758 5758 5758 5758 5758 5758 5758 5758 5758 5758 5759 5759 5759 5758 5758 5758 5758 5757 5758 5758 5757 5757 5757 5757 5757 5757 5756 5756 5756 5756 5756 5756
5732 5733 5735 5735 5735 5735 5735 5735 5737 5738 5740 5741 5743 5744 5745 5746 5747 5747 5748 5748 5749 5749 5750 5751 5752 5752 5753 5753 5754 5754 5754 5754 5755 5755 5755 5755 5755 5755 5756 5756 5757 5757 5757 5756 5756 5756 5756 5755 5755 5755 5755 5756 5756 5756 5756 5756 5756 5756 5756 5757 5756 5756 5756 5756 5756 5756 5756 5756 5756 5755 5755 5755 5755 5755 5755 5755 5754 5754 5754 5754 5753 5752 5752 5752 5752
5730 5731 5732 5732 5733 5733 5733 5734 5735 5737 5738 5739 5740 5741 5742 5743 5743 5744 5745 5745 5746 5747 5747 5748 5749 5749 5750 5751 5751 5751 5751 5751 5752 5752 5752 5752 5753 5753 5754 5754 5754 5755 5754 5754 5754 5753 5753 5753 5753 5752 5752 5753 5753 5753 5752 5753 5753 5753 5753 5754 5754 5753 5753 5753 5753 5753 5753 5753 5753 5752 5752 5752 5752 5752 5752 5752 5751 5751 5751 5750 5749 5749 5748 5748 5748
5727 5728 5729 5730 5731 5731 5730 5730 5731 5732 5733 5734 5735 5736 5737 5737 5738 5739 5740 5741 5742 5744 5744 5745 5746 5747 5747 5747 5747 5748 5748 5748 5749 5749 5749 5749 5750 5751 5752 5752 5752 5752 5751 5751 5751 5750 5750 5750 5749 5749 5749 5749 5749 5749 5749 5749 5749 5749 5750 5750 5750 5750 5750 5750 5750 5750 5750 5750 5750 5750 5749 5749 5749 5748 5748 5748 5748 5747 5747 5746 5745 5745 5744 5744 5743
5723 5724 5726 5728 5729 5729 5728 5728 5728 5729 5730 5731 5733 5732 5731 5731 5733 5735 5736 5738 5739 5740 5742 5743 5744 5744 5745 5744 5744 5745 5745 5746 5746 5746 5746 5746 5747 5748 5749 5749 5749 5748 5748 5748 5747 5747 5746 5746 5746 5746 5746 5745 5746 5745 5745 5745 5745 5745 5746 5746 5747 5747 5747 5746 5747 5746 5746 5746 5746 5746 5746 5746 5745 5745 5744 5744 5743 5743 5742 5741 5741 5740 5740 5739 5738
5719 5721 5723 5726 5728 5727 5727 5728 5728 5730 5731 5732 5732 5731 5729 5730 5732 5733 5734 5735 5737 5738 5739 5740 5741 5742 5741 5742 5742 5743 5743 5743 5743 5743 5743 5743 5744 5745 5745 5745 5745 5744 5744 5744 5744 5743 5742 5742 5743 5743 5742 5741 5742 5742 5742 5742 5742 5743 5743 5743 5743 5743 5743 5743 5743 5743 5743 5742 5742 5742 5741 5741 5741 5740 5740 5739 5738 5738 5738 5737 5736 5735 5734 5734 5733
5717 5719 5721 5723 5724 5724 5725 5726 5727 5728 5730 5731 5730 5729 5728 5730 5731 5731 5732 5733 5735 5736 5737 5737 5738 5739 5739 5739 5740 5740 5739 5739 5739 5740 5741 5741 5742 5742 5742 5741 5741 5739 5740 5741 5740 5739 5738 5739 5740 5740 5739 5738 5738 5738 5739 5739 5740 5740 5740 5740 5740 5740 5740 5740 5739 5739 5739 5738 5738 5737 5736 5736 5735 5734 5734 5733 5733 5733 5732 5731 5731 5730 5729 5728 5727
5715 5717 5719 5720 5720 5721 5721 5722 5723 5725 5727 5727 5727 5726 5726 5727 5727 5728 5730 5731 5732 5733 5734 5735 5736 5736 5736 5736 5737 5736 5735 5735 5735 5736 5737 5738 5739 5739 5738 5738 5737 5736 5736 5737 5737 5736 5735 5735 5736 5736 5736 5735 5735 5735 5736 5736 5737 5737 5737 5736 5736 5736 5736 5735 5735 5735 5734 5734 5733 5732 5732 5730 5729 5729 5727 5726 5726 5726 5726 5725 5724 5723 5723 5722 5721
5713 5714 5716 5717 5718 5718 5718 5718 5719 5721 5722 5723 5723 5723 5723 5723 5724 5725 5726 5727 5729 5730 5731 5731 5732 5732 5733 5733 5732 5732 5731 5731 5732 5732 5733 5734 5735 5735 5736 5735 5734 5733 5733 5733 5733 5733 5732 5732 5732 5732 5732 5731 5731 5732 5732 5732 5733 5733 5733 5733 5732 5732 5731 5731 5730 5730 5729 5729 5727 5727 5726 5725 5724 5723 5722 5720 5720 5719 5718 5718 5717 5716 5716 5715 5715
5712 5712 5713 5714 5715 5715 5715 5716 5717 5717 5718 5719 5720 5720 5720 5720 5721 5722 5723 5724 5725 5726 5727 5727 5728 5728 5729 5729 5728 5728 5727 5728 5728 5728 5729 5730 5730 5731 5732 5732 5731 5730 5729 5729 5728 5728 5728 5727 5727 5727 5728 5728 5728 5728 5728 5728 5728 5728 5729 5728 5728 5727 5727 5726 5725 5725 5724 5724 5722 5721 5721 5720 5718 5718 5716 5715 5714 5713 5712 5711 5710 5709 5708 5708 5707
5709 5709 5710 5711 5712 5713 5713 5714 5714 5715 5715 5716 5717 5717 5717 5717 5718 5718 5719 5720 5721 5722 5722 5723 5723 5723 5724 5724 5724 5724 5724 5724 5724 5724 5725 5725 5726 5726 5727 5728 5727 5726 5726 5725 5724 5723 5723 5722 5722 5722 5722 5723 5723 5723 5724 5724 5724 5724 5724 5724 5723 5722 5721 5721 5720 5719 5719 5718 5717 5716 5715 5714 5713 5712 5711 5709 5708 5707 5706 5705 5703 5702 5702 5701 5700
5704 5706 5706 5707 5709 5710 5711 5711 5711 5711 5711 5711 5712 5713 5713 5713 5713 5713 5713 5714 5715 5716 5716 5717 5717 5717 5718 5719 5720 5720 5720 5720 5720 5720 5720 5720 5720 5721 5721 5722 5722 5721 5721 5720 5719 5719 5718 5717 5718 5718 5717 5717 5717 5718 5718 5718 5718 5718 5718 5718 5718 5716 5715 5715 5715 5714 5713 5712 5711 5710 5710 5708 5707 5706 5705 5703 5702 5701 5699 5698 5697 5696 5695 5694 5693
5699 5700 5702 5703 5704 5706 5706 5707 5707 5707 5707 5707 5707 5708 5708 5707 5708 5708 5708 5709 5710 5710 5711 5711 5711 5711 5711 5713 5714 5715 5715 5715 5715 5715 5715 5715 5715 5715 5715 5715 5715 5715 5715 5715 5715 5714 5712 5712 5713 5712 5711 5711 5711 5711 5712 5712 5712 5712 5712 5712 5712 5710 5709 5709 5709 5708 5707 5707 5705 5705 5704 5702 5701 5700 5699 5697 5696 5695 5694 5692 5691 5690 5689 5688 5687
5695 5696 5697 5697 5698 5699 5700 5701 5702 5702 5702 5702 5702 5703 5703 5703 5703 5703 5703 5703 5704 5705 5705 5705 5706 5706 5706 5706 5708 5708 5708 5708 5708 5708 5709 5709 5709 5709 5709 5709 5709 5709 5709 5710 5710 5709 5707 5707 5708 5706 5704 5705 5705 5704 5704 5705 5705 5705 5706 5707 5707 5706 5703 5703 5703 5702 5701 5701 5700 5699 5697 5696 5695 5694 5692 5691 5690 5689 5688 5686 5685 5683 5682 5681 5680
5691 5691 5691 5691 5692 5693 5694 5695 5696 5696 5696 5696 5697 5698 5698 5698 5697 5698 5698 5699 5699 5700 5699 5700 5701 5701 5701 5701 5702 5703 5703 5703 5703 5702 5702 5702 5702 5702 5702 5702 5702 5703 5704 5704 5704 5703 5701 5702 5702 5700 5698 5698 5699 5697 5697 5698 5697 5698 5698 5699 5700 5701 5699 5697 5696 5696 5695 5694 5693 5692 5691 5690 5689 5687 5686 5685 5684 5683 5681 5680 5679 5677 5676 5675 5673
5685 5685 5685 5685 5686 5687 5688 5689 5690 5690 5690 5691 5691 5691 5691 5691 5691 5692 5692 5693 5694 5694 5694 5694 5695 5695 5695 5695 5697 5697 5696 5696 5696 5696 5695 5695 5695 5695 5695 5695 5695 5696 5697 5698 5697 5696 5695 5695 5695 5694 5692 5692 5692 5691 5691 5690 5690 5690 5690 5690 5691 5693 5693 5691 5689 5689 5689 5687 5686 5685 5684 5683 5682 5681 5680 5678 5677 5676 5675 5674 5672 5671 5669 5668 5667
5680 5680 5680 5680 5681 5682 5683 5683 5684 5683 5683 5684 5685 5685 5685 5685 5685 5686 5687 5687 5687 5687 5687 5686 5687 5688 5687 5687 5689 5690 5688 5687 5688 5688 5688 5688 5689 5688 5687 5687 5688 5688 5689 5691 5691 5690 5689 5689 5688 5687 5686 5686 5685 5685 5684 5684 5684 5684 5684 5683 5683 5684 5685 5685 5684 5683 5683 5681 5680 5679 5678 5677 5676 5674 5673 5671 5670 5669 5668 5667 5665 5664 5662 5661 5660
5673 5674 5674 5674 5675 5676 5677 5677 5677 5677 5677 5678 5679 5680 5680 5680 5680 5680 5680 5681 5680 5680 5678 5677 5678 5678 5678 5679 5681 5682 5682 5681 5680 5680 5681 5681 5681 5681 5679 5679 5680 5680 5680 5681 5684 5684 5682 5681 5681 5680 5680 5680 5679 5679 5678 5678 5678 5678 5677 5677 5677 5677 5677 5677 5677 5677 5677 5676 5674 5673 5672 5671 5670 5669 5667 5665 5664 5664 5662 5660 5659 5658 5656 5654 5653
5667 5667 5668 5668 5669 5669 5670 5670 5670 5670 5670 5671 5672 5673 5673 5673 5673 5673 5673 5673 5673 5672 5671 5670 5669 5669 5669 5671 5673 5674 5675 5675 5673 5673 5674 5674 5673 5673 5672 5671 5671 5672 5672 5671 5674 5678 5677 5673 5673 5673 5673 5673 5673 5673 5672 5672 5672 5672 5671 5671 5671 5670 5670 5670 5670 5670 5669 5669 5668 5666 5665 5664 5663 5662 5660 5658 5657 5656 5655 5654 5653 5652 5650 5648 5646
5660 5661 5661 5661 5662 5662 5662 5663 5663 5662 5662 5663 5664 5664 5665 5665 5664 5664 5664 5664 5664 5665 5664 5662 5662 5662 5661 5661 5663 5665 5667 5668 5666 5664 5665 5666 5666 5666 5665 5663 5662 5664 5664 5662 5665 5670 5669 5666 5666 5666 5667 5667 5667 5666 5666 5666 5666 5666 5665 5665 5665 5664 5664 5663 5663 5663 5662 5662 5661 5659 5658 5657 5655 5654 5653 5651 5650 5648 5646 5645 5644 5643 5641 5639 5638
5653 5654 5654 5654 5653 5653 5653 5653 5653 5653 5653 5654 5654 5655 5656 5656 5656 5656 5656 5655 5655 5656 5656 5655 5654 5654 5653 5653 5654 5655 5657 5659 5659 5657 5658 5659 5658 5658 5657 5656 5655 5655 5655 5655 5658 5661 5660 5658 5659 5659 5659 5660 5660 5659 5659 5659 5659 5659 5659 5658 5658 5658 5657 5656 5656 5655 5655 5655 5654 5652 5651 5650 5649 5647 5646 5644 5643 5641 5640 5638 5636 5635 5633 5631 5630
5646 5646 5646 5645 5645 5644 5643 5643 5643 5644 5644 5645 5645 5646 5646 5646 5647 5646 5646 5647 5646 5646 5647 5646 5646 5646 5646 5646 5646 5645 5646 5649 5652 5651 5651 5651 5651 5650 5649 5649 5648 5648 5646 5647 5651 5651 5650 5650 5651 5651 5651 5652 5652 5652 5652 5652 5651 5651 5651 5651 5651 5651 5650 5650 5649 5648 5648 5648 5647 5646 5644 5643 5642 5641 5639 5637 5636 5634 5633 5632 5630 5628 5626 5624 5623
5637 5637 5637 5637 5636 5635 5635 5635 5634 5634 5635 5635 5636 5637 5637 5637 5637 5637 5637 5637 5637 5636 5637 5637 5637 5637 5637 5638 5639 5639 5637 5639 5643 5644 5644 5644 5643 5642 5642 5641 5641 5640 5640 5640 5642 5642 5641 5642 5642 5643 5643 5643 5643 5644 5644 5644 5644 5644 5644 5644 5644 5643 5643 5643 5642 5642 5641 5640 5639 5638 5638 5637 5635 5634 5632 5630 5629 5627 5626 5625 5623 5621 5619 5618 5616
5629 5629 5628 5628 5627 5627 5626 5626 5626 5626 5626 5626 5626 5627 5627 5627 5627 5627 5627 5626 5626 5626 5627 5626 5626 5627 5628 5628 5630 5631 5630 5631 5634 5637 5638 5638 5636 5635 5635 5634 5634 5633 5633 5633 5633 5633 5633 5634 5634 5634 5635 5636 5636 5636 5637 5637 5637 5636 5636 5636 5636 5637 5637 5636 5635 5635 5634 5633 5632 5631 5631 5630 5629 5627 5625 5623 5622 5620 5619 5617 5616 5614 5612 5611 5609
5620 5619 5619 5618 5617 5617 5616 5616 5617 5616 5616 5616 5616 5617 5617 5617 5617 5617 5617 5616 5615 5616 5616 5616 5616 5617 5618 5618 5620 5622 5622 5623 5625 5627 5629 5631 5631 5629 5628 5626 5625 5625 5625 5626 5626 5625 5625 5626 5627 5627 5628 5629 5630 5630 5630 5630 5630 5629 5629 5629 5629 5630 5630 5629 5628 5627 5627 5625 5625 5624 5623 5622 5621 5619 5618 5616 5615 5613 5611 5610 5608 5606 5605 5603 5601
5611 5610 5610 5609 5608 5607 5607 5607 5607 5607 5607 5606 5606 5606 5607 5607 5607 5607 5607 5606 5606 5606 5606 5605 5606 5607 5607 5608 5610 5611 5612 5614 5615 5617 5620 5623 5624 5624 5622 5619 5617 5617 5618 5618 5618 5618 5618 5620 5620 5621 5622 5623 5623 5623 5624 5624 5624 5623 5622 5622 5622 5623 5623 5622 5621 5621 5620 5619 5618 5617 5615 5614 5613 5611 5610 5608 5607 5605 5603 5602 5600 5599 5597 5596 5594
5601 5600 5600 5599 5598 5598 5599 5599 5598 5597 5597 5596 5596 5596 5597 5597 5596 5596 5596 5595 5595 5595 5594 5595 5595 5595 5596 5597 5599 5600 5602 5604 5606 5607 5610 5614 5617 5617 5615 5611 5610 5610 5610 5609 5609 5609 5611 5613 5614 5614 5615 5616 5616 5617 5618 5618 5618 5618 5617 5615 5614 5615 5615 5615 5615 5614 5613 5612 5611 5610 5609 5607 5606 5604 5602 5601 5599 5597 5596 5594 5593 5592 5590 5589 5588
5591 5591 5590 5589 5589 5589 5589 5589 5588 5587 5587 5586 5585 5585 5586 5586 5586 5586 5585 5584 5584 5582 5582 5583 5583 5583 5584 5585 5588 5589 5591 5594 5596 5597 5600 5604 5608 5608 5605 5603 5603 5604 5604 5602 5601 5602 5603 5605 5607 5608 5609 5609 5609 5610 5611 5612 5612 5611 5611 5610 5609 5609 5608 5608 5608 5607 5606 5604 5603 5602 5601 5600 5598 5597 5595 5594 5592 5591 5589 5588 5587 5586 5584 5583 5581
5582 5582 5581 5580 5580 5579 5579 5579 5578 5577 5576 5576 5575 5574 5574 5574 5575 5575 5573 5572 5572 5572 5570 5570 5571 5571 5572 5574 5576 5578 5580 5583 5586 5588 5590 5593 5595 5595 5594 5593 5596 5598 5597 5595 5595 5596 5597 5598 5600 5601 5602 5604 5604 5604 5604 5605 5605 5604 5604 5604 5604 5604 5603 5602 5601 5600 5598 5596 5595 5594 5593 5592 5591 5590 5589 5588 5587 5585 5584 5583 5581 5580 5579 5577 5576
5573 5573 5572 5572 5571 5570 5570 5569 5568 5567 5566 5566 5564 5563 5562 5562 5563 5563 5561 5560 5560 5561 5560 5559 5558 5558 5560 5562 5565 5567 5569 5571 5574 5577 5579 5581 5582 5583 5584 5586 5588 5590 5590 5588 5587 5588 5590 5591 5592 5594 5596 5598 5599 5598 5598 5598 5598 5597 5596 5596 5597 5598 5598 5596 5595 5593 5592 5590 5589 5588 5587 5586 5585 5584 5583 5582 5581 5580 5579 5578 5577 5576 5574 5572 5571
5565 5565 5564 5564 5563 5562 5561 5560 5559 5558 5557 5556 5555 5553 5552 5551 5551 5551 5550 5549 5548 5549 5549 5549 5547 5546 5547 5550 5552 5554 5556 5559 5562 5565 5567 5569 5572 5574 5576 5578 5580 5582 5582 5582 5582 5582 5583 5583 5584 5588 5591 5593 5593 5592 5591 5591 5591 5591 5590 5590 5590 5591 5591 5590 5588 5587 5586 5585 5584 5583 5582 5581 5580 5580 5579 5578 5577 5576 5575 5574 5573 5571 5569 5568 5565
5558 5558 5557 5556 5556 5555 5554 5553 5553 5552 5550 5549 5548 5546 5544 5542 5541 5540 5540 5539 5538 5538 5538 5537 5537 5537 5538 5539 5541 5543 5545 5547 5550 5552 5554 5557 5561 5564 5566 5571 5575 5576 5577 5578 5577 5576 5576 5576 5578 5582 5585 5586 5585 5584 5584 5585 5586 5586 5586 5586 5586 5586 5585 5584 5583 5582 5581 5580 5580 5579 5578 5577 5577 5576 5575 5574 5574 5573 5572 5570 5569 5567 5565 5562 5560
5553 5552 5552 5551 5551 5550 5549 5549 5548 5547 5546 5544 5543 5540 5538 5536 5533 5532 5531 5530 5530 5529 5528 5528 5529 5529 5530 5531 5532 5534 5536 5537 5539 5541 5543 5545 5550 5553 5558 5565 5571 5572 5573 5573 5571 5568 5568 5570 5573 5576 5578 5578 5578 5578 5579 5580 5581 5581 5581 5581 5581 5581 5580 5579 5578 5577 5577 5576 5576 5575 5574 5574 5573 5573 5572 5571 5571 5570 5568 5567 5565 5562 5560 5557 5555
5549 5549 5548 5548 5547 5547 5546 5546 5545 5544 5542 5540 5538 5535 5532 5529 5526 5524 5522 5521 5521 5521 5520 5520 5521 5522 5523 5524 5525 5526 5527 5529 5531 5533 5534 5537 5540 5544 5550 5557 5562 5564 5566 5567 5565 5562 5563 5565 5566 5568 5570 5572 5572 5573 5574 5575 5576 5576 5576 5577 5577 5576 5575 5575 5574 5573 5573 5572 5572 5571 5571 5570 5570 5570 5569 5569 5568 5567 5565 5563 5561 5558 5555 5552 5550
5547 5546 5546 5545 5545 5544 5544 5543 5542 5541 5539 5536 5534 5530 5527 5523 5519 5516 5514 5512 5512 5512 5513 5513 5514 5515 5517 5519 5520 5520 5522 5523 5525 5527 5528 5530 5533 5536 5541 5546 5550 5554 5557 5559 5559 5558 5559 5559 5558 5560 5564 5566 5567 5568 5569 5570 5572 5572 5572 5572 5573 5572 5571 5571 5571 5570 5570 5569 5569 5568 5568 5568 5568 5567 5567 5566 5565 5564 5562 5560 5558 5555 5551 5548 5546
5544 5544 5544 5543 5543 5542 5542 5541 5539 5538 5535 5533 5530 5526 5522 5517 5512 5509 5506 5504 5504 5504 5505 5507 5508 5509 5511 5513 5514 5516 5517 5519 5520 5521 5523 5524 5526 5529 5533 5537 5541 5545 5549 5551 5553 5553 5553 5553 5553 5555 5558 5560 5562 5563 5565 5566 5567 5568 5568 5569 5569 5568 5568 5568 5567 5567 5566 5566 5566 5566 5565 5565 5565 5565 5564 5563 5562 5561 5559 5557 5555 5552 5548 5545 5543
5543 5542 5542 5541 5541 5540 5539 5538 5537 5535 5533 5530 5527 5523 5519 5513 5508 5504 5501 5498 5497 5497 5499 5501 5503 5504 5506 5508 5510 5512 5514 5514 5515 5516 5518 5519 5521 5523 5526 5529 5533 5536 5539 5542 5545 5546 5546 5547 5549 5551 5552 5554 5557 5559 5560 5561 5562 5564 5565 5565 5565 5565 5565 5565 5564 5564 5564 5563 5563 5563 5563 5563 5563 5563 5562 5561 5560 5558 5557 5555 5553 5550 5546 5543 5541
5541 5541 5540 5540 5539 5538 5537 5536 5534 5532 5530 5527 5524 5521 5516 5511 5505 5500 5497 5494 5493 5493 5494 5497 5499 5501 5502 5504 5507 5509 5510 5510 5511 5513 5514 5515 5517 5519 5521 5524 5527 5529 5531 5534 5536 5538 5539 5541 5543 5545 5547 5550 5552 5554 5556 5557 5558 5560 5561 5561 5561 5561 5562 5561 5561 5561 5561 5561 5561 5561 5561 5561 5561 5560 5560 5559 5558 5556 5554 5553 5550 5548 5544 5541 5539
5540 5539 5539 5538 5537 5536 5535 5534 5532 5530 5528 5526 5522 5519 5515 5510 5504 5499 5495 5493 5491 5491 5492 5494 5496 5498 5500 5502 5504 5505 5506 5507 5508 5510 5511 5512 5513 5515 5517 5520 5522 5524 5526 5527 5530 5532 5533 5535 5538 5541 5544 5546 5548 5550 5551 5553 5554 5556 5557 5557 5557 5558 5558 5558 5558 5558 5558 5558 5558 5559 5559 5559 5558 5558 5558 5557 5555 5554 5552 5551 5549 5546 5543 5540 5537
5538 5538 5537 5536 5536 5534 5533 5532 5530 5529 5527 5524 5521 5518 5514 5510 5505 5500 5496 5493 5492 5491 5492 5493 5495 5496 5498 5500 5502 5503 5504 5505 5506 5507 5508 5509 5510 5511 5513 5515 5517 5519 5521 5523 5525 5527 5528 5531 5535 5538 5539 5541 5544 5546 5547 5549 5550 5552 5553 5553 5553 5554 5554 5554 5555 5555 5555 5556 5556 5556 5556 5556 5556 5556 5555 5555 5553 5552 5550 5549 5547 5545 5542 5538 5536
5537 5537 5536 5535 5534 5533 5532 5530 5529 5527 5525 5523 5520 5517 5514 5510 5506 5502 5498 5495 5494 5493 5493 5494 5495 5496 5497 5499 5500 5502 5503 5504 5505 5506 5507 5507 5508 5509 5510 5511 5513 5515 5517 5519 5520 5523 5526 5529 5532 5533 5534 5537 5540 5542 5543 5545 5546 5548 5548 5549 5549 5550 5551 5551 5552 5552 5552 5553 5553 5554 5554 5554 5554 5554 5553 5553 5552 5550 5549 5547 5545 5543 5541 5538 5535
5537 5536 5535 5534 5533 5532 5531 5529 5528 5526 5523 5521 5519 5517 5514 5511 5508 5504 5500 5498 5496 5495 5495 5495 5496 5497 5498 5499 5500 5501 5502 5503 5504 5505 5505 5506 5507 5508 5508 5509 5510 5512 5513 5515 5517 5520 5524 5527 5528 5529 5530 5534 5537 5538 5539 5541 5542 5543 5544 5545 5546 5546 5547 5548 5548 5549 5550 5550 5551 5551 5551 5551 5551 5551 5551 5551 5550 5548 5547 5546 5544 5542 5540 5537 5535
5537 5536 5535 5534 5533 5532 5530 5529 5527 5525 5523 5520 5518 5516 5514 5511 5509 5506 5503 5500 5498 5496 5496 5496 5497 5497 5498 5499 5500 5501 5501 5502 5502 5503 5504 5505 5506 5506 5507 5507 5508 5509 5510 5512 5514 5518 5521 5523 5525 5526 5528 5531 5533 5534 5535 5537 5538 5539 5540 5541 5542 5543 5544 5545 5545 5546 5547 5547 5548 5548 5549 5549 5549 5549 5549 5549 5548 5547 5546 5545 5543 5541 5539 5537 5535
5537 5536 5535 5534 5533 5532 5531 5529 5528 5525 5523 5520 5518 5516 5514 5512 5510 5507 5505 5503 5500 5498 5497 5497 5497 5498 5498 5499 5500 5501 5501 5501 5502 5502 5503 5504 5504 5505 5505 5506 5507 5508 5509 5511 5513 5516 5518 5520 5522 5524 5526 5527 5529 5530 5532 5533 5534 5535 5537 5538 5539 5540 5541 5542 5543 5543 5544 5544 5545 5546 5546 5546 5547 5547 5547 5547 5546 5545 5544 5543 5542 5540 5539 5537 5535
5537 5536 5535 5534 5533 5532 5531 5530 5528 5526 5524 5522 5519 5517 5515 5513 5511 5509 5507 5505 5503 5501 5499 5499 5499 5499 5500 5500 5501 5501 5502 5502 5502 5502 5503 5504 5504 5504 5505 5506 5507 5508 5509 5511 5512 5514 5516 5518 5520 5521 5523 5525 5526 5528 5529 5530 5531 5533 5534 5535 5536 5537 5538 5539 5540 5540 5541 5542 5542 5543 5544 5544 5544 5545 5545 5544 5544 5543 5543 5542 5541 5539 5538 5536 5534
5537 5536 5535 5534 5533 5532 5531 5530 5528 5527 5525 5523 5521 5519 5516 5514 5512 5511 5509 5508 5506 5504 5503 5502 5501 5501 5502 5502 5502 5502 5502 5503 5503 5503 5504 5504 5504 5504 5504 5506 5507 5508 5509 5510 5512 5513 5515 5516 5518 5520 5521 5522 5524 5525 5526 5527 5528 5530 5531 5532 5533 5534 5535 5536 5537 5538 5538 5539 5540 5540 5541 5541 5542 5542 5542 5542 5542 5541 5541 5540 5539 5538 5537 5536 5534
5537 5536 5535 5534 5533 5532 5531 5530 5528 5527 5526 5524 5522 5520 5518 5516 5514 5513 5511 5510 5509 5507 5506 5505 5504 5504 5503 5503 5503 5503 5504 5504 5504 5504 5504 5504 5504 5504 5505 5506 5507 5508 5509 5510 5511 5512 5514 5515 5516 5518 5519 5520 5521 5523 5524 5525 5526 5527 5528 5529 5530 5531 5533 5534 5534 5535 5536 5537 5537 5538 5538 5539 5539 5540 5540 5540 5540 5540 5539 5538 5538 5537 5536 5535 5533
5536 5535 5534 5534 5533 5532 5530 5529 5528 5527 5526 5524 5523 5521 5520 5518 5516 5515 5513 5512 5510 5509 5509 5508 5507 5506 5506 5505 5505 5505 5505 5505 5505 5505 5505 5505 5505 5505 5505 5506 5506 5507 5508 5509 5510 5511 5512 5513 5515 5516 5517 5518 5519 5520 5521 5522 5523 5524 5525 5527 5528 5529 5530 5531 5532 5533 5534 5534 5535 5535 5536 5536 5537 5537 5537 5537 5537 5537 5537 5537 5536 5535 5535 5534 5532